Location: Peterborough
(44.3091°N, 78.3197°W)
Time: 04:19:56
(UTC-04:00)

Tiros 1 despin weight - Pass Details

Date: 29 March 2023
Orbit: 586 x 632 km, 48.2° (Epoch: 08 June)

Event Time Altitude Azimuth Distance (km) Brightness Sun altitude
Rises 21:06:57 0° 247° (WSW) 2,801 ? -16.4°
Reaches altitude 10° 21:09:13 10° 247° (WSW) 1,902 ? -16.8°
Maximum altitude 21:13:35 89° 334° (NNW) 592 ? -17.5°
Enters shadow 21:15:55 27° 67° (ENE) 1,138 ? -17.9°
Drops below altitude 10° 21:17:59 10° 68° (ENE) 1,920 - -18.3°
Sets 21:20:17 0° 69° (ENE) 2,828 - -18.6°
